This is the latest recevied weather packets stored in our database for station/object KC4GS-13. If no packets are shown the sender has not sent any weather packets the latest 10 day(s).
| Time | Temp. | Humidity | Pressure | Rain* | Wind** | Luminosity | Snow |
|---|---|---|---|---|---|---|---|
| 1777421058 | 17.78° C | 89% | 1018.4 hPa | 0 mm | - | 1 W/m² | - |
| 1777420755 | 17.78° C | 89% | 1018.7 hPa | 0 mm | - | 5 W/m² | - |
| 1777420451 | 18.33° C | 88% | 1018.6 hPa | 0 mm | - | 7 W/m² | - |
| 1777420148 | 18.33° C | 88% | 1018.4 hPa | 0 mm | - | 10 W/m² | - |
| 1777419843 | 18.33° C | 87% | 1018.9 hPa | 0 mm | - | 13 W/m² | - |
| 1777419541 | 18.89° C | 87% | 1018.9 hPa | 0 mm | - | 17 W/m² | - |
| 1777419240 | 18.89° C | 87% | 1018.9 hPa | 0 mm | - | 19 W/m² | - |
| 1777418937 | 18.89° C | 87% | 1019.1 hPa | 0 mm | - | 26 W/m² | - |
| 1777418632 | 18.89° C | 86% | 1018.9 hPa | 0 mm | - | 34 W/m² | - |
| 1777418329 | 19.44° C | 86% | 1018.8 hPa | 0 mm | - | 44 W/m² | - |
| 1777418024 | 18.89° C | 86% | 1019.3 hPa | 0 mm | - | 49 W/m² | - |
| 1777417720 | 19.44° C | 86% | 1019.1 hPa | 0 mm | - | 54 W/m² | - |
| 1777417416 | 19.44° C | 86% | 1019.2 hPa | 0 mm | - | 63 W/m² | - |
| 1777417113 | 19.44° C | 85% | 1019.3 hPa | 0 mm | - | 66 W/m² | - |
| 1777416808 | 19.44° C | 86% | 1019.4 hPa | 0 mm | - | 69 W/m² | - |
| 1777416504 | 19.44° C | 85% | 1019.4 hPa | 0 mm | - | 68 W/m² | - |
| 1777416200 | 19.44° C | 85% | 1019.8 hPa | 0 mm | - | 83 W/m² | - |
| 1777415900 | 19.44° C | 85% | 1019.9 hPa | 0 mm | - | 92 W/m² | - |
| 1777415596 | 19.44° C | 86% | 1019.7 hPa | 0 mm | - | 92 W/m² | - |
| 1777415291 | 19.44° C | 85% | 1019.8 hPa | 0 mm | - | 65 W/m² | - |
| 1777414986 | 19.44° C | 85% | 1019.6 hPa | 0 mm | - | 79 W/m² | - |
| 1777414681 | 20° C | 84% | 1019.8 hPa | 0 mm | - | 103 W/m² | - |
| 1777414376 | 20° C | 84% | 1019.3 hPa | 0 mm | - | 94 W/m² | - |
| 1777414075 | 20° C | 84% | 1019.5 hPa | 0 mm | - | 100 W/m² | - |
| 1777413770 | 20° C | 84% | 1019.6 hPa | 0 mm | - | 112 W/m² | - |
* Rain latest hour (hover to see other rain measurements)
** Current wind speed in m/s (hover to see current wind gust speed)